Location: Newark
(15.4608°S, 41.1635°W)
Time: 09:21:03
(UTC+00:00)

Vanguard 3 - Pass Details

Date: 30 July 2021
Orbit: 510 x 3260 km, 33.3° (Epoch: 22 September)

Event Time Altitude Azimuth Distance (km) Brightness Sun altitude
Rises 13:36:21 0° 219° (SW) 2,675 9.5 51.5°
Reaches altitude 10° 13:38:53 10° 199° (SSW) 1,906 8.8 51.8°
Maximum altitude 13:41:57 19° 152° (SSE) 1,618 8.7 52.1°
Drops below altitude 10° 13:45:53 10° 107° (ESE) 2,515 9.9 52.6°
Sets 13:49:54 0° 90° (E) 3,920 10.9 53.0°
